Year,Month,Day,Hour,Minute,Value (Times are PST for windspeed in km/hr)
2015,08,29,00,00,1.80
2015,08,29,00,01,0.10
2015,08,29,00,02,0.30
2015,08,29,00,03,0.00
2015,08,29,00,04,0.00
2015,08,29,00,05,0.00
2015,08,29,00,06,0.50
2015,08,29,00,07,1.80
2015,08,29,00,08,1.40
2015,08,29,00,09,0.10
2015,08,29,00,10,0.10
2015,08,29,00,11,0.20
2015,08,29,00,12,0.00
2015,08,29,00,13,0.00
2015,08,29,00,14,0.40
2015,08,29,00,15,2.80
2015,08,29,00,16,2.30
2015,08,29,00,17,5.40
2015,08,29,00,18,3.10
2015,08,29,00,19,1.30
2015,08,29,00,20,0.00
2015,08,29,00,21,1.40
2015,08,29,00,22,0.70
2015,08,29,00,23,2.20
2015,08,29,00,24,3.20
2015,08,29,00,25,2.30
2015,08,29,00,26,1.20
2015,08,29,00,27,0.20
2015,08,29,00,28,0.00
2015,08,29,00,29,1.00
2015,08,29,00,30,2.70
2015,08,29,00,31,3.50
2015,08,29,00,32,1.50
2015,08,29,00,33,1.40
2015,08,29,00,34,0.80
2015,08,29,00,35,0.10
2015,08,29,00,36,2.00
2015,08,29,00,37,3.50
2015,08,29,00,38,3.00
2015,08,29,00,39,0.50
2015,08,29,00,40,1.40
2015,08,29,00,41,0.00
2015,08,29,00,42,0.20
2015,08,29,00,43,0.70
2015,08,29,00,44,0.10
2015,08,29,00,45,0.50
2015,08,29,00,46,0.20
2015,08,29,00,47,0.70
2015,08,29,00,48,1.80
2015,08,29,00,49,1.90
2015,08,29,00,50,2.40
2015,08,29,00,51,0.50
2015,08,29,00,52,0.70
2015,08,29,00,53,0.60
2015,08,29,00,54,0.20
2015,08,29,00,55,0.00
2015,08,29,00,56,0.00
2015,08,29,00,57,0.00
2015,08,29,00,58,0.10
2015,08,29,00,59,0.60
2015,08,29,01,00,0.10
2015,08,29,01,01,0.00
2015,08,29,01,02,0.00
2015,08,29,01,03,1.20
2015,08,29,01,04,0.40
2015,08,29,01,05,0.00
2015,08,29,01,06,2.40
2015,08,29,01,07,1.20
2015,08,29,01,08,0.30
2015,08,29,01,09,0.30
2015,08,29,01,10,3.30
2015,08,29,01,11,3.70
2015,08,29,01,12,1.90
2015,08,29,01,13,2.50
2015,08,29,01,14,4.70
2015,08,29,01,15,0.00
2015,08,29,01,16,1.60
2015,08,29,01,17,3.50
2015,08,29,01,18,4.50
2015,08,29,01,19,3.80
2015,08,29,01,20,3.10
2015,08,29,01,21,1.30
2015,08,29,01,22,1.00
2015,08,29,01,23,1.90
2015,08,29,01,24,3.90
2015,08,29,01,25,5.40
2015,08,29,01,26,3.90
2015,08,29,01,27,4.30
2015,08,29,01,28,5.10
2015,08,29,01,29,4.30
2015,08,29,01,30,5.80
2015,08,29,01,31,5.90
2015,08,29,01,32,6.40
2015,08,29,01,33,3.50
2015,08,29,01,34,2.80
2015,08,29,01,35,0.90
2015,08,29,01,36,3.10
2015,08,29,01,37,1.30
2015,08,29,01,38,3.40
2015,08,29,01,39,4.50
2015,08,29,01,40,7.20
2015,08,29,01,41,2.70
2015,08,29,01,42,0.80
2015,08,29,01,43,8.10
2015,08,29,01,44,5.90
2015,08,29,01,45,5.30
2015,08,29,01,46,3.00
2015,08,29,01,47,4.10
2015,08,29,01,48,7.20
2015,08,29,01,49,4.50
2015,08,29,01,50,1.40
2015,08,29,01,51,2.30
2015,08,29,01,52,0.30
2015,08,29,01,53,0.20
2015,08,29,01,54,0.00
2015,08,29,01,55,3.40
2015,08,29,01,56,3.40
2015,08,29,01,57,1.00
2015,08,29,01,58,1.90
2015,08,29,01,59,4.50
2015,08,29,02,00,1.00
2015,08,29,02,01,1.20
2015,08,29,02,02,0.00
2015,08,29,02,03,0.00
2015,08,29,02,04,0.00
2015,08,29,02,05,0.00
2015,08,29,02,06,2.50
2015,08,29,02,07,0.60
2015,08,29,02,08,0.00
2015,08,29,02,09,0.10
2015,08,29,02,10,1.80
2015,08,29,02,11,3.40
2015,08,29,02,12,3.50
2015,08,29,02,13,2.70
2015,08,29,02,14,2.70
2015,08,29,02,15,4.20
2015,08,29,02,16,5.50
2015,08,29,02,17,6.70
2015,08,29,02,18,3.80
2015,08,29,02,19,4.40
2015,08,29,02,20,1.00
2015,08,29,02,21,2.70
2015,08,29,02,22,5.40
2015,08,29,02,23,0.30
2015,08,29,02,24,2.80
2015,08,29,02,25,4.00
2015,08,29,02,26,3.80
2015,08,29,02,27,5.10
2015,08,29,02,28,2.40
2015,08,29,02,29,2.50
2015,08,29,02,30,7.40
2015,08,29,02,31,7.00
2015,08,29,02,32,5.60
2015,08,29,02,33,5.70
2015,08,29,02,34,6.20
2015,08,29,02,35,8.10
2015,08,29,02,36,6.50
2015,08,29,02,37,4.70
2015,08,29,02,38,3.70
2015,08,29,02,39,1.60
2015,08,29,02,40,4.30
2015,08,29,02,41,7.80
2015,08,29,02,42,1.20
2015,08,29,02,43,4.30
2015,08,29,02,44,2.10
2015,08,29,02,45,6.20
2015,08,29,02,46,7.60
2015,08,29,02,47,2.60
2015,08,29,02,48,5.70
2015,08,29,02,49,3.90
2015,08,29,02,50,6.00
2015,08,29,02,51,6.00
2015,08,29,02,52,8.00
2015,08,29,02,53,7.20
2015,08,29,02,54,5.00
2015,08,29,02,55,4.10
2015,08,29,02,56,3.40
2015,08,29,02,57,8.00
2015,08,29,02,58,8.10
2015,08,29,02,59,5.50
2015,08,29,03,00,8.00
2015,08,29,03,01,4.90
2015,08,29,03,02,3.30
2015,08,29,03,03,7.00
2015,08,29,03,04,1.90
2015,08,29,03,05,1.00
2015,08,29,03,06,3.90
2015,08,29,03,07,3.90
2015,08,29,03,08,0.40
2015,08,29,03,09,0.00
2015,08,29,03,10,0.00
2015,08,29,03,11,0.00
2015,08,29,03,12,2.70
2015,08,29,03,13,2.90
2015,08,29,03,14,3.80
2015,08,29,03,15,2.10
2015,08,29,03,16,2.40
2015,08,29,03,17,1.20
2015,08,29,03,18,2.50
2015,08,29,03,19,7.60
2015,08,29,03,20,6.30
2015,08,29,03,21,4.80
2015,08,29,03,22,5.30
2015,08,29,03,23,6.70
2015,08,29,03,24,3.90
2015,08,29,03,25,5.20
2015,08,29,03,26,5.80
2015,08,29,03,27,3.10
2015,08,29,03,28,3.50
2015,08,29,03,29,2.00
2015,08,29,03,30,3.60
2015,08,29,03,31,3.10
2015,08,29,03,32,4.90
2015,08,29,03,33,2.40
2015,08,29,03,34,1.90
2015,08,29,03,35,2.60
2015,08,29,03,36,4.10
2015,08,29,03,37,1.50
2015,08,29,03,38,0.60
2015,08,29,03,39,2.90
2015,08,29,03,40,2.00
2015,08,29,03,41,1.40
2015,08,29,03,42,0.90
2015,08,29,03,43,2.00
2015,08,29,03,44,2.80
2015,08,29,03,45,0.10
2015,08,29,03,46,0.10
2015,08,29,03,47,0.00
2015,08,29,03,48,0.80
2015,08,29,03,49,1.00
2015,08,29,03,50,2.40
2015,08,29,03,51,2.10
2015,08,29,03,52,2.70
2015,08,29,03,53,3.10
2015,08,29,03,54,0.70
2015,08,29,03,55,3.70
2015,08,29,03,56,4.60
2015,08,29,03,57,3.40
2015,08,29,03,58,2.30
2015,08,29,03,59,4.10
2015,08,29,04,00,4.60
2015,08,29,04,01,2.90
2015,08,29,04,02,2.40
2015,08,29,04,03,0.60
2015,08,29,04,04,2.40
2015,08,29,04,05,0.10
2015,08,29,04,06,1.40
2015,08,29,04,07,3.80
2015,08,29,04,08,5.60
2015,08,29,04,09,1.10
2015,08,29,04,10,3.90
2015,08,29,04,11,3.70
2015,08,29,04,12,3.10
2015,08,29,04,13,1.90
2015,08,29,04,14,5.70
2015,08,29,04,15,5.60
2015,08,29,04,16,3.90
2015,08,29,04,17,4.20
2015,08,29,04,18,2.50
2015,08,29,04,19,6.30
2015,08,29,04,20,5.90
2015,08,29,04,21,3.70
2015,08,29,04,22,3.80
2015,08,29,04,23,4.80
2015,08,29,04,24,5.10
2015,08,29,04,25,6.30
2015,08,29,04,26,4.00
2015,08,29,04,27,4.80
2015,08,29,04,28,3.70
2015,08,29,04,29,2.00
2015,08,29,04,30,11.30
2015,08,29,04,31,10.20
2015,08,29,04,32,7.70
2015,08,29,04,33,5.10
2015,08,29,04,34,2.00
2015,08,29,04,35,5.00
2015,08,29,04,36,3.70
2015,08,29,04,37,4.80
2015,08,29,04,38,2.60
2015,08,29,04,39,2.70
2015,08,29,04,40,5.80
2015,08,29,04,41,5.60
2015,08,29,04,42,8.70
2015,08,29,04,43,9.00
2015,08,29,04,44,6.40
2015,08,29,04,45,7.90
2015,08,29,04,46,8.50
2015,08,29,04,47,8.70
2015,08,29,04,48,6.80
2015,08,29,04,49,5.60
2015,08,29,04,50,3.30
2015,08,29,04,51,4.20
2015,08,29,04,52,6.20
2015,08,29,04,53,5.10
2015,08,29,04,54,4.70
2015,08,29,04,55,1.40
2015,08,29,04,56,3.50
2015,08,29,04,57,7.00
2015,08,29,04,58,2.70
2015,08,29,04,59,0.60
2015,08,29,05,00,1.60
2015,08,29,05,01,2.40
2015,08,29,05,02,5.60
2015,08,29,05,03,6.00
2015,08,29,05,04,1.40
2015,08,29,05,05,2.10
2015,08,29,05,06,2.70
2015,08,29,05,07,7.50
2015,08,29,05,08,3.10
2015,08,29,05,09,3.70
2015,08,29,05,10,5.50
2015,08,29,05,11,6.30
2015,08,29,05,12,3.20
2015,08,29,05,13,1.10
2015,08,29,05,14,3.50
2015,08,29,05,15,2.30
2015,08,29,05,16,1.50
2015,08,29,05,17,3.00
2015,08,29,05,18,7.30
2015,08,29,05,19,3.70
2015,08,29,05,20,4.60
2015,08,29,05,21,2.50
2015,08,29,05,22,3.10
2015,08,29,05,23,3.50
2015,08,29,05,24,5.30
2015,08,29,05,25,4.80
2015,08,29,05,26,0.60
2015,08,29,05,27,1.60
2015,08,29,05,28,4.10
2015,08,29,05,29,3.90
2015,08,29,05,30,1.90
2015,08,29,05,31,2.20
2015,08,29,05,32,1.00
2015,08,29,05,33,0.00
2015,08,29,05,34,0.90
2015,08,29,05,35,1.00
2015,08,29,05,36,0.60
2015,08,29,05,37,0.40
2015,08,29,05,38,0.50
2015,08,29,05,39,0.10
2015,08,29,05,40,0.00
2015,08,29,05,41,0.70
2015,08,29,05,42,2.50
2015,08,29,05,43,2.60
2015,08,29,05,44,2.40
2015,08,29,05,45,4.70
2015,08,29,05,46,8.10
2015,08,29,05,47,13.00
2015,08,29,05,48,15.50
2015,08,29,05,49,16.90
2015,08,29,05,50,19.50
2015,08,29,05,51,17.70
2015,08,29,05,52,18.00
2015,08,29,05,53,9.90
2015,08,29,05,54,12.90
2015,08,29,05,55,5.70
2015,08,29,05,56,4.10
2015,08,29,05,57,3.90
2015,08,29,05,58,5.60
2015,08,29,05,59,9.10
2015,08,29,06,00,8.00
2015,08,29,06,01,1.10
2015,08,29,06,02,3.50
2015,08,29,06,03,5.40
2015,08,29,06,04,10.70
2015,08,29,06,05,6.50
2015,08,29,06,06,8.60
2015,08,29,06,07,6.30
2015,08,29,06,08,3.90
2015,08,29,06,09,4.60
2015,08,29,06,10,3.30
2015,08,29,06,11,4.20
2015,08,29,06,12,0.30
2015,08,29,06,13,0.00
2015,08,29,06,14,0.10
2015,08,29,06,15,0.00
2015,08,29,06,16,0.00
2015,08,29,06,17,0.00
2015,08,29,06,18,0.00
2015,08,29,06,19,0.10
2015,08,29,06,20,1.80
2015,08,29,06,21,4.30
2015,08,29,06,22,4.10
2015,08,29,06,23,3.90
2015,08,29,06,24,3.90
2015,08,29,06,25,3.00
2015,08,29,06,26,3.30
2015,08,29,06,27,1.40
2015,08,29,06,28,3.90
2015,08,29,06,29,3.40
2015,08,29,06,30,1.30
2015,08,29,06,31,1.40
2015,08,29,06,32,3.10
2015,08,29,06,33,2.80
2015,08,29,06,34,2.90
2015,08,29,06,35,1.70
2015,08,29,06,36,3.90
2015,08,29,06,37,3.30
2015,08,29,06,38,4.50
2015,08,29,06,39,7.80
2015,08,29,06,40,7.40
2015,08,29,06,41,5.00
2015,08,29,06,42,4.40
2015,08,29,06,43,5.20
2015,08,29,06,44,7.00
2015,08,29,06,45,8.50
2015,08,29,06,46,6.00
2015,08,29,06,47,7.30
2015,08,29,06,48,11.30
2015,08,29,06,49,4.70
2015,08,29,06,50,8.50
2015,08,29,06,51,7.10
2015,08,29,06,52,6.90
2015,08,29,06,53,6.70
2015,08,29,06,54,8.10
2015,08,29,06,55,5.60
2015,08,29,06,56,5.70
2015,08,29,06,57,5.80
2015,08,29,06,58,4.90
2015,08,29,06,59,4.30
2015,08,29,07,00,4.90
2015,08,29,07,01,7.00
2015,08,29,07,02,9.20
2015,08,29,07,03,9.90
2015,08,29,07,04,8.40
2015,08,29,07,05,6.80
2015,08,29,07,06,8.90
2015,08,29,07,07,8.20
2015,08,29,07,08,7.10
2015,08,29,07,09,12.90
2015,08,29,07,10,11.70
2015,08,29,07,11,6.00
2015,08,29,07,12,7.10
2015,08,29,07,13,6.60
2015,08,29,07,14,6.00
2015,08,29,07,15,8.60
2015,08,29,07,16,6.30
2015,08,29,07,17,8.50
2015,08,29,07,18,6.10
2015,08,29,07,19,8.50
2015,08,29,07,20,8.90
2015,08,29,07,21,4.40
2015,08,29,07,22,6.60
2015,08,29,07,23,4.80
2015,08,29,07,24,10.20
2015,08,29,07,25,8.40
2015,08,29,07,26,5.10
2015,08,29,07,27,9.80
2015,08,29,07,28,10.90
2015,08,29,07,29,5.60
2015,08,29,07,30,5.40
2015,08,29,07,31,7.80
2015,08,29,07,32,8.40
2015,08,29,07,33,6.60
2015,08,29,07,34,7.10
2015,08,29,07,35,10.10
2015,08,29,07,36,5.60
2015,08,29,07,37,3.70
2015,08,29,07,38,2.50
2015,08,29,07,39,7.20
2015,08,29,07,40,2.90
2015,08,29,07,41,4.70
2015,08,29,07,42,2.00
2015,08,29,07,43,0.10
2015,08,29,07,44,2.30
2015,08,29,07,45,4.40
2015,08,29,07,46,5.30
2015,08,29,07,47,2.50
2015,08,29,07,48,3.80
2015,08,29,07,49,6.90
2015,08,29,07,50,5.00
2015,08,29,07,51,3.50
2015,08,29,07,52,3.90
2015,08,29,07,53,3.90
2015,08,29,07,54,6.80
2015,08,29,07,55,5.90
2015,08,29,07,56,5.80
2015,08,29,07,57,2.10
2015,08,29,07,58,1.90
2015,08,29,07,59,1.40
2015,08,29,08,00,3.70
2015,08,29,08,01,6.50
2015,08,29,08,02,11.90
2015,08,29,08,03,10.00
2015,08,29,08,04,10.90
2015,08,29,08,05,8.10
2015,08,29,08,06,6.00
2015,08,29,08,07,1.00
2015,08,29,08,08,0.00
2015,08,29,08,09,0.10
2015,08,29,08,10,1.90
2015,08,29,08,11,3.80
2015,08,29,08,12,5.70
2015,08,29,08,13,1.70
2015,08,29,08,14,7.30
2015,08,29,08,15,3.10
2015,08,29,08,16,2.10
2015,08,29,08,17,2.70
2015,08,29,08,18,9.80
2015,08,29,08,19,6.80
2015,08,29,08,20,5.90
2015,08,29,08,21,0.70
2015,08,29,08,22,5.20
2015,08,29,08,23,5.70
2015,08,29,08,24,9.40
2015,08,29,08,25,3.40
2015,08,29,08,26,5.50
2015,08,29,08,27,7.20
2015,08,29,08,28,6.50
2015,08,29,08,29,3.60
2015,08,29,08,30,7.70
2015,08,29,08,31,13.80
2015,08,29,08,32,10.40
2015,08,29,08,33,13.10
2015,08,29,08,34,5.50
2015,08,29,08,35,1.90
2015,08,29,08,36,2.30
2015,08,29,08,37,1.10
2015,08,29,08,38,5.20
2015,08,29,08,39,5.80
2015,08,29,08,40,3.70
2015,08,29,08,41,6.20
2015,08,29,08,42,9.70
2015,08,29,08,43,5.20
2015,08,29,08,44,13.30
2015,08,29,08,45,6.80
2015,08,29,08,46,7.10
2015,08,29,08,47,6.00
2015,08,29,08,48,9.00
2015,08,29,08,49,7.00
2015,08,29,08,50,5.60
2015,08,29,08,51,8.80
2015,08,29,08,52,10.10
2015,08,29,08,53,3.20
2015,08,29,08,54,3.10
2015,08,29,08,55,8.80
2015,08,29,08,56,5.20
2015,08,29,08,57,0.10
2015,08,29,08,58,0.80
2015,08,29,08,59,0.90
2015,08,29,09,00,5.80
2015,08,29,09,01,6.40
2015,08,29,09,02,7.00
2015,08,29,09,03,7.30
2015,08,29,09,04,9.30
2015,08,29,09,05,7.60
2015,08,29,09,06,11.00
2015,08,29,09,07,11.00
2015,08,29,09,08,6.80
2015,08,29,09,09,6.40
2015,08,29,09,10,12.90
2015,08,29,09,11,15.10
2015,08,29,09,12,12.30
2015,08,29,09,13,6.80
2015,08,29,09,14,2.70
2015,08,29,09,15,6.30
2015,08,29,09,16,10.30
2015,08,29,09,17,8.20
2015,08,29,09,18,8.40
2015,08,29,09,19,11.20
2015,08,29,09,20,8.00
2015,08,29,09,21,7.60
2015,08,29,09,22,9.50
2015,08,29,09,23,10.90
2015,08,29,09,24,8.20
2015,08,29,09,25,8.50
2015,08,29,09,26,9.30
2015,08,29,09,27,7.90
2015,08,29,09,28,6.80
2015,08,29,09,29,16.70
2015,08,29,09,30,14.30
2015,08,29,09,31,6.50
2015,08,29,09,32,4.60
2015,08,29,09,33,5.50
2015,08,29,09,34,4.40
2015,08,29,09,35,11.30
2015,08,29,09,36,6.90
2015,08,29,09,37,10.10
2015,08,29,09,38,7.10
2015,08,29,09,39,9.90
2015,08,29,09,40,16.50
2015,08,29,09,41,17.60
2015,08,29,09,42,18.50
2015,08,29,09,43,21.50
2015,08,29,09,44,21.20
2015,08,29,09,45,15.10
2015,08,29,09,46,12.20
2015,08,29,09,47,17.40
2015,08,29,09,48,22.90
2015,08,29,09,49,18.80
2015,08,29,09,50,13.30
2015,08,29,09,51,20.30
2015,08,29,09,52,22.40
2015,08,29,09,53,25.90
2015,08,29,09,54,15.80
2015,08,29,09,55,15.40
2015,08,29,09,56,15.40
2015,08,29,09,57,21.50
2015,08,29,09,58,18.00
2015,08,29,09,59,18.10
2015,08,29,10,00,26.60
2015,08,29,10,01,19.20
2015,08,29,10,02,20.50
2015,08,29,10,03,18.50
2015,08,29,10,04,22.50
2015,08,29,10,05,18.80
2015,08,29,10,06,19.90
2015,08,29,10,07,18.50
2015,08,29,10,08,17.60
2015,08,29,10,09,22.10
2015,08,29,10,10,24.90
2015,08,29,10,11,17.20
2015,08,29,10,12,22.00
2015,08,29,10,13,23.80
2015,08,29,10,14,22.80
2015,08,29,10,15,25.70
2015,08,29,10,16,27.90
2015,08,29,10,17,23.30
2015,08,29,10,18,25.50
2015,08,29,10,19,21.60
2015,08,29,10,20,27.10
2015,08,29,10,21,27.30
2015,08,29,10,22,24.10
2015,08,29,10,23,19.30
2015,08,29,10,24,31.50
2015,08,29,10,25,22.70
2015,08,29,10,26,24.80
2015,08,29,10,27,20.50
2015,08,29,10,28,22.50
2015,08,29,10,29,22.70
2015,08,29,10,30,20.80
2015,08,29,10,31,22.50
2015,08,29,10,32,21.50
2015,08,29,10,33,14.80
2015,08,29,10,34,9.00
2015,08,29,10,35,24.20
2015,08,29,10,36,21.00
2015,08,29,10,37,22.40
2015,08,29,10,38,19.80
2015,08,29,10,39,30.10
2015,08,29,10,40,34.70
2015,08,29,10,41,26.60
2015,08,29,10,42,18.80
2015,08,29,10,43,20.70
2015,08,29,10,44,27.90
2015,08,29,10,45,22.10
2015,08,29,10,46,27.60
2015,08,29,10,47,19.20
2015,08,29,10,48,22.80
2015,08,29,10,49,24.50
2015,08,29,10,50,23.90
2015,08,29,10,51,32.10
2015,08,29,10,52,21.60
2015,08,29,10,53,28.20
2015,08,29,10,54,32.60
2015,08,29,10,55,24.80
2015,08,29,10,56,31.30
2015,08,29,10,57,19.60
2015,08,29,10,58,21.10
2015,08,29,10,59,20.40
2015,08,29,11,00,25.40
2015,08,29,11,01,27.70
2015,08,29,11,02,23.60
2015,08,29,11,03,28.20
2015,08,29,11,04,22.00
2015,08,29,11,05,26.90
2015,08,29,11,06,22.00
2015,08,29,11,07,31.30
2015,08,29,11,08,25.00
2015,08,29,11,09,23.10
2015,08,29,11,10,32.00
2015,08,29,11,11,23.50
2015,08,29,11,12,24.30
2015,08,29,11,13,33.20
2015,08,29,11,14,24.90
2015,08,29,11,15,28.40
2015,08,29,11,16,20.40
2015,08,29,11,17,22.10
2015,08,29,11,18,28.60
2015,08,29,11,19,25.00
2015,08,29,11,20,22.90
2015,08,29,11,21,34.10
2015,08,29,11,22,25.00
2015,08,29,11,23,16.90
2015,08,29,11,24,36.40
2015,08,29,11,25,31.60
2015,08,29,11,26,29.20
2015,08,29,11,27,27.00
2015,08,29,11,28,24.60
2015,08,29,11,29,21.50
2015,08,29,11,30,29.00
2015,08,29,11,31,22.50
2015,08,29,11,32,19.20
2015,08,29,11,33,23.30
2015,08,29,11,34,22.00
2015,08,29,11,35,25.30
2015,08,29,11,36,20.10
2015,08,29,11,37,21.60
2015,08,29,11,38,22.70
2015,08,29,11,39,20.70
2015,08,29,11,40,18.60
2015,08,29,11,41,18.60
2015,08,29,11,42,18.70
2015,08,29,11,43,10.50
2015,08,29,11,44,12.00
2015,08,29,11,45,12.60
2015,08,29,11,46,12.90
2015,08,29,11,47,17.90
2015,08,29,11,48,11.80
2015,08,29,11,49,14.00
2015,08,29,11,50,13.40
2015,08,29,11,51,17.50
2015,08,29,11,52,17.60
2015,08,29,11,53,14.40
2015,08,29,11,54,4.50
2015,08,29,11,55,12.10
2015,08,29,11,56,9.30
2015,08,29,11,57,4.30
2015,08,29,11,58,10.00
2015,08,29,11,59,16.00
2015,08,29,12,00,5.00
2015,08,29,12,01,6.70
2015,08,29,12,02,11.50
2015,08,29,12,03,14.60
2015,08,29,12,04,7.40
2015,08,29,12,05,3.70
2015,08,29,12,06,7.70
2015,08,29,12,07,8.70
2015,08,29,12,08,7.50
2015,08,29,12,09,13.10
2015,08,29,12,10,11.30
2015,08,29,12,11,10.10
2015,08,29,12,12,4.90
2015,08,29,12,13,2.20
2015,08,29,12,14,2.30
2015,08,29,12,15,1.00
2015,08,29,12,16,0.10
2015,08,29,12,17,0.00
2015,08,29,12,18,0.00
2015,08,29,12,19,2.40
2015,08,29,12,20,0.20
2015,08,29,12,21,0.30
2015,08,29,12,22,0.10
2015,08,29,12,23,1.90
2015,08,29,12,24,0.40
2015,08,29,12,25,0.00
2015,08,29,12,26,0.00
2015,08,29,12,27,0.00
2015,08,29,12,28,0.10
2015,08,29,12,29,0.00
2015,08,29,12,30,1.80
2015,08,29,12,31,5.90
2015,08,29,12,32,4.70
2015,08,29,12,33,6.70
2015,08,29,12,34,5.60
2015,08,29,12,35,5.30
2015,08,29,12,36,7.90
2015,08,29,12,37,5.20
2015,08,29,12,38,5.70
2015,08,29,12,39,5.40
2015,08,29,12,40,4.40
2015,08,29,12,41,3.90
2015,08,29,12,42,0.30
2015,08,29,12,43,2.90
2015,08,29,12,44,0.50
2015,08,29,12,45,0.00
2015,08,29,12,46,0.60
2015,08,29,12,47,0.00
2015,08,29,12,48,0.00
2015,08,29,12,49,4.40
2015,08,29,12,50,9.70
2015,08,29,12,51,5.50
2015,08,29,12,52,0.50
2015,08,29,12,53,1.60
2015,08,29,12,54,3.10
2015,08,29,12,55,10.90
2015,08,29,12,56,5.70
2015,08,29,12,57,4.50
2015,08,29,12,58,9.40
2015,08,29,12,59,13.40
2015,08,29,13,00,12.80
2015,08,29,13,01,9.90
2015,08,29,13,02,9.10
2015,08,29,13,03,8.60
2015,08,29,13,04,10.80
2015,08,29,13,05,10.90
2015,08,29,13,06,11.30
2015,08,29,13,07,10.30
2015,08,29,13,08,11.30
2015,08,29,13,09,16.60
2015,08,29,13,10,13.30
2015,08,29,13,11,12.20
2015,08,29,13,12,10.30
2015,08,29,13,13,10.60
2015,08,29,13,14,7.80
2015,08,29,13,15,5.80
2015,08,29,13,16,11.30
2015,08,29,13,17,8.80
2015,08,29,13,18,6.60
2015,08,29,13,19,8.10
2015,08,29,13,20,5.40
2015,08,29,13,21,14.80
2015,08,29,13,22,12.10
2015,08,29,13,23,11.70
2015,08,29,13,24,9.40
2015,08,29,13,25,8.10
2015,08,29,13,26,3.70
2015,08,29,13,27,4.50
2015,08,29,13,28,7.50
2015,08,29,13,29,10.80
2015,08,29,13,30,8.90
2015,08,29,13,31,10.80
2015,08,29,13,32,8.90
2015,08,29,13,33,8.40
2015,08,29,13,34,10.50
2015,08,29,13,35,7.00
2015,08,29,13,36,9.50
2015,08,29,13,37,11.40
2015,08,29,13,38,5.80
2015,08,29,13,39,10.90
2015,08,29,13,40,11.30
2015,08,29,13,41,8.40
2015,08,29,13,42,8.00
2015,08,29,13,43,7.30
2015,08,29,13,44,11.30
2015,08,29,13,45,7.20
2015,08,29,13,46,6.40
2015,08,29,13,47,6.10
2015,08,29,13,48,9.70
2015,08,29,13,49,7.40
2015,08,29,13,50,16.30
2015,08,29,13,51,14.40
2015,08,29,13,52,13.40
2015,08,29,13,53,25.30
2015,08,29,13,54,23.10
2015,08,29,13,55,27.30
2015,08,29,13,56,39.30
2015,08,29,13,57,26.20
2015,08,29,13,58,28.00
2015,08,29,13,59,27.90
2015,08,29,14,00,29.00
2015,08,29,14,01,32.30
2015,08,29,14,02,25.40
2015,08,29,14,03,23.70
2015,08,29,14,04,24.70
2015,08,29,14,05,24.10
2015,08,29,14,06,32.30
2015,08,29,14,07,26.60
2015,08,29,14,08,29.30
2015,08,29,14,09,29.70
2015,08,29,14,10,27.40
2015,08,29,14,11,29.10
2015,08,29,14,12,28.70
2015,08,29,14,13,28.10
2015,08,29,14,14,33.90
2015,08,29,14,15,34.30
2015,08,29,14,16,40.60
2015,08,29,14,17,34.50
2015,08,29,14,18,33.30
2015,08,29,14,19,46.30
2015,08,29,14,20,36.30
2015,08,29,14,21,38.80
2015,08,29,14,22,34.20
2015,08,29,14,23,34.80
2015,08,29,14,24,34.60
2015,08,29,14,25,41.20
2015,08,29,14,26,40.40
2015,08,29,14,27,38.20
2015,08,29,14,28,35.60
2015,08,29,14,29,39.00
2015,08,29,14,30,33.40
2015,08,29,14,31,35.00
2015,08,29,14,32,25.00
2015,08,29,14,33,26.50
2015,08,29,14,34,33.90
2015,08,29,14,35,31.20
2015,08,29,14,36,28.50
2015,08,29,14,37,31.00
2015,08,29,14,38,31.10
2015,08,29,14,39,29.50
2015,08,29,14,40,28.00
2015,08,29,14,41,36.00
2015,08,29,14,42,35.70
2015,08,29,14,43,26.80
2015,08,29,14,44,36.60
2015,08,29,14,45,34.90
2015,08,29,14,46,35.50
2015,08,29,14,47,34.90
2015,08,29,14,48,33.40
2015,08,29,14,49,30.20
2015,08,29,14,50,27.00
2015,08,29,14,51,20.30
2015,08,29,14,52,22.80
2015,08,29,14,53,27.40
2015,08,29,14,54,30.50
2015,08,29,14,55,30.70
2015,08,29,14,56,17.40
2015,08,29,14,57,17.90
2015,08,29,14,58,17.30
2015,08,29,14,59,17.90
2015,08,29,15,00,14.90
2015,08,29,15,01,14.20
2015,08,29,15,02,22.90
2015,08,29,15,03,18.10
2015,08,29,15,04,20.20
2015,08,29,15,05,22.60
2015,08,29,15,06,21.70
2015,08,29,15,07,20.20
2015,08,29,15,08,21.90
2015,08,29,15,09,26.30
2015,08,29,15,10,20.50
2015,08,29,15,11,15.40
2015,08,29,15,12,15.10
2015,08,29,15,13,10.60
2015,08,29,15,14,10.90
2015,08,29,15,15,17.50
2015,08,29,15,16,18.70
2015,08,29,15,17,13.50
2015,08,29,15,18,22.40
2015,08,29,15,19,21.20
2015,08,29,15,20,20.40
2015,08,29,15,21,23.20
2015,08,29,15,22,25.70
2015,08,29,15,23,26.40
2015,08,29,15,24,20.60
2015,08,29,15,25,22.70
2015,08,29,15,26,22.80
2015,08,29,15,27,18.20
2015,08,29,15,28,16.00
2015,08,29,15,29,22.80
2015,08,29,15,30,20.40
2015,08,29,15,31,16.30
2015,08,29,15,32,17.90
2015,08,29,15,33,22.00
2015,08,29,15,34,17.60
2015,08,29,15,35,20.60
2015,08,29,15,36,18.40
2015,08,29,15,37,21.90
2015,08,29,15,38,16.00
2015,08,29,15,39,19.90
2015,08,29,15,40,9.20
2015,08,29,15,41,16.70
2015,08,29,15,42,16.00
2015,08,29,15,43,16.30
2015,08,29,15,44,22.50
2015,08,29,15,45,21.80
2015,08,29,15,46,18.80
2015,08,29,15,47,11.20
2015,08,29,15,48,11.80
2015,08,29,15,49,18.40
2015,08,29,15,50,8.80
2015,08,29,15,51,11.70
2015,08,29,15,52,12.10
2015,08,29,15,53,12.60
2015,08,29,15,54,11.30
2015,08,29,15,55,9.20
2015,08,29,15,56,15.40
2015,08,29,15,57,14.20
2015,08,29,15,58,14.00
2015,08,29,15,59,17.20
2015,08,29,16,00,12.50
2015,08,29,16,01,14.00
2015,08,29,16,02,15.40
2015,08,29,16,03,11.60
2015,08,29,16,04,10.10
2015,08,29,16,05,10.50
2015,08,29,16,06,8.00
2015,08,29,16,07,10.00
2015,08,29,16,08,11.00
2015,08,29,16,09,9.40
2015,08,29,16,10,10.30
2015,08,29,16,11,10.70
2015,08,29,16,12,13.50
2015,08,29,16,13,11.10
2015,08,29,16,14,6.60
2015,08,29,16,15,8.00
2015,08,29,16,16,9.70
2015,08,29,16,17,14.20
2015,08,29,16,18,8.80
2015,08,29,16,19,7.10
2015,08,29,16,20,8.90
2015,08,29,16,21,9.30
2015,08,29,16,22,11.80
2015,08,29,16,23,12.00
2015,08,29,16,24,10.70
2015,08,29,16,25,8.40
2015,08,29,16,26,8.70
2015,08,29,16,27,8.20
2015,08,29,16,28,7.90
2015,08,29,16,29,4.30
2015,08,29,16,30,6.30
2015,08,29,16,31,9.00
2015,08,29,16,32,5.10
2015,08,29,16,33,5.00
2015,08,29,16,34,6.00
2015,08,29,16,35,4.30
2015,08,29,16,36,3.40
2015,08,29,16,37,3.30
2015,08,29,16,38,1.90
2015,08,29,16,39,4.30
2015,08,29,16,40,1.80
2015,08,29,16,41,1.40
2015,08,29,16,42,1.30
2015,08,29,16,43,2.00
2015,08,29,16,44,2.60
2015,08,29,16,45,0.10
2015,08,29,16,46,0.70
2015,08,29,16,47,2.60
2015,08,29,16,48,0.60
2015,08,29,16,49,1.90
2015,08,29,16,50,1.40
2015,08,29,16,51,1.70
2015,08,29,16,52,0.60
2015,08,29,16,53,1.90
2015,08,29,16,54,0.20
2015,08,29,16,55,1.70
2015,08,29,16,56,1.40
2015,08,29,16,57,2.40
2015,08,29,16,58,2.30
2015,08,29,16,59,0.50
2015,08,29,17,00,0.20
2015,08,29,17,01,0.00
2015,08,29,17,02,0.00
2015,08,29,17,03,0.80
2015,08,29,17,04,3.30
2015,08,29,17,05,3.90
2015,08,29,17,06,2.10
2015,08,29,17,07,3.00
2015,08,29,17,08,1.80
2015,08,29,17,09,0.00
2015,08,29,17,10,0.20
2015,08,29,17,11,0.00
2015,08,29,17,12,0.10
2015,08,29,17,13,0.10
2015,08,29,17,14,1.20
2015,08,29,17,15,0.50
2015,08,29,17,16,0.40
2015,08,29,17,17,0.20
2015,08,29,17,18,0.00
2015,08,29,17,19,0.00
2015,08,29,17,20,0.00
2015,08,29,17,21,0.40
2015,08,29,17,22,1.90
2015,08,29,17,23,1.50
2015,08,29,17,24,2.10
2015,08,29,17,25,1.90
2015,08,29,17,26,1.50
2015,08,29,17,27,2.20
2015,08,29,17,28,3.10
2015,08,29,17,29,4.80
2015,08,29,17,30,3.60
2015,08,29,17,31,2.10
2015,08,29,17,32,0.00
2015,08,29,17,33,0.00
2015,08,29,17,34,0.00
2015,08,29,17,35,0.00
2015,08,29,17,36,0.00
2015,08,29,17,37,0.00
2015,08,29,17,38,0.00
2015,08,29,17,39,0.10
2015,08,29,17,40,0.00
2015,08,29,17,41,0.00
2015,08,29,17,42,0.00
2015,08,29,17,43,0.00
2015,08,29,17,44,0.00
2015,08,29,17,45,0.20
2015,08,29,17,46,3.00
2015,08,29,17,47,3.40
2015,08,29,17,48,5.80
2015,08,29,17,49,5.20
2015,08,29,17,50,5.20